TimeEST,TemperatureF,Dew PointF,Humidity,Sea Level PressureIn,VisibilityMPH,Wind Direction,Wind SpeedMPH,Gust SpeedMPH,PrecipitationIn,Events,Conditions,WindDirDegrees,DateUTC
12:53 AM,30.9,21.0,67,30.22,10.0,East,11.5,-,N/A,,Overcast,90,2013-02-08 05:53:00
1:53 AM,32.0,21.9,66,30.17,10.0,East,10.4,-,N/A,,Overcast,90,2013-02-08 06:53:00
2:53 AM,32.0,23.0,69,30.15,10.0,East,10.4,-,N/A,,Overcast,80,2013-02-08 07:53:00
3:36 AM,33.8,24.8,70,30.11,10.0,ENE,11.5,-,N/A,,Overcast,70,2013-02-08 08:36:00
3:53 AM,33.1,25.0,72,30.12,10.0,East,10.4,-,N/A,,Overcast,80,2013-02-08 08:53:00
4:13 AM,33.8,26.6,75,30.09,10.0,East,11.5,-,N/A,,Overcast,80,2013-02-08 09:13:00
4:53 AM,33.1,27.0,78,30.09,10.0,East,9.2,-,N/A,,Overcast,80,2013-02-08 09:53:00
5:53 AM,34.0,30.0,85,30.06,8.0,East,15.0,-,0.00,,Overcast,90,2013-02-08 10:53:00
6:16 AM,33.8,30.2,87,30.04,4.0,East,9.2,-,0.00,Rain,Light Rain,90,2013-02-08 11:16:00
6:53 AM,34.0,30.0,85,30.04,7.0,East,9.2,-,0.00,,Overcast,90,2013-02-08 11:53:00
7:40 AM,33.8,30.2,87,30.01,2.5,NE,6.9,-,0.01,Rain,Light Rain,50,2013-02-08 12:40:00
7:53 AM,34.0,30.9,89,30.01,3.0,ENE,9.2,-,0.02,Rain,Light Rain,70,2013-02-08 12:53:00
8:53 AM,35.1,32.0,89,29.98,6.0,ENE,13.8,-,0.01,Rain,Light Rain,60,2013-02-08 13:53:00
9:53 AM,35.1,32.0,89,29.94,6.0,ENE,12.7,-,0.00,Rain,Light Rain,70,2013-02-08 14:53:00
10:53 AM,35.1,32.0,89,29.91,9.0,ENE,10.4,-,0.00,,Overcast,60,2013-02-08 15:53:00
11:53 AM,36.0,32.0,86,29.86,10.0,ENE,15.0,-,N/A,,Overcast,60,2013-02-08 16:53:00
12:53 PM,36.0,32.0,86,29.81,10.0,East,13.8,-,N/A,,Overcast,80,2013-02-08 17:53:00
1:53 PM,37.0,33.1,86,29.79,10.0,North,4.6,-,N/A,,Overcast,350,2013-02-08 18:53:00
2:27 PM,35.6,32.0,87,29.77,1.8,NNE,6.9,-,0.01,Rain,Light Rain,20,2013-02-08 19:27:00
2:41 PM,35.6,33.8,93,29.76,2.0,North,6.9,-,0.01,Rain,Light Rain,360,2013-02-08 19:41:00
2:53 PM,36.0,33.1,89,29.76,2.5,NNE,6.9,-,0.01,,Overcast,30,2013-02-08 19:53:00
3:08 PM,35.6,33.8,93,29.73,3.0,NE,10.4,-,N/A,,Overcast,40,2013-02-08 20:08:00
3:31 PM,35.6,32.0,87,29.74,6.0,NNE,9.2,-,N/A,,Overcast,20,2013-02-08 20:31:00
3:53 PM,35.1,30.9,85,29.75,9.0,North,8.1,-,N/A,,Overcast,360,2013-02-08 20:53:00
4:42 PM,33.8,30.2,87,29.75,1.8,NW,6.9,-,0.01,Snow,Light Snow,320,2013-02-08 21:42:00
4:53 PM,34.0,30.9,89,29.76,1.8,NW,8.1,-,0.02,Snow,Light Snow,310,2013-02-08 21:53:00
5:10 PM,33.8,30.2,87,29.76,1.5,NW,10.4,-,0.00,Snow,Light Snow,320,2013-02-08 22:10:00
5:12 PM,33.8,30.2,87,29.76,1.2,NW,10.4,-,0.00,Snow,Light Snow,320,2013-02-08 22:12:00
5:53 PM,33.1,30.9,92,29.77,1.8,North,6.9,-,0.03,Snow,Light Snow,350,2013-02-08 22:53:00
6:00 PM,33.8,30.2,87,29.76,2.0,NNW,9.2,-,0.00,Snow,Light Snow,340,2013-02-08 23:00:00
6:45 PM,32.0,30.2,93,29.76,2.0,NW,8.1,-,0.02,Snow,Light Snow,320,2013-02-08 23:45:00
6:53 PM,33.1,30.9,92,29.77,2.0,NNW,6.9,-,0.02,Snow,Light Snow,330,2013-02-08 23:53:00
7:06 PM,33.8,30.2,87,29.76,3.0,NNW,6.9,-,0.01,Snow,Light Snow,340,2013-02-09 00:06:00
7:11 PM,33.8,30.2,87,29.76,2.5,NNW,8.1,-,0.01,Snow,Light Snow,340,2013-02-09 00:11:00
7:22 PM,33.8,30.2,87,29.77,3.0,North,9.2,-,0.02,Snow,Light Snow,350,2013-02-09 00:22:00
7:27 PM,33.8,30.2,87,29.77,1.8,NNW,6.9,-,0.03,Snow,Light Snow,340,2013-02-09 00:27:00
7:35 PM,32.0,30.2,93,29.77,0.8,NNW,5.8,-,0.05,Snow,Light Snow,330,2013-02-09 00:35:00
7:43 PM,32.0,30.2,93,29.77,0.8,NW,4.6,-,0.07,Snow,Light Snow,310,2013-02-09 00:43:00
7:53 PM,32.0,30.0,92,29.78,2.0,WNW,5.8,-,0.07,Snow,Light Snow,290,2013-02-09 00:53:00
8:07 PM,32.0,30.2,93,29.77,3.0,WNW,5.8,-,0.00,,Overcast,290,2013-02-09 01:07:00
8:30 PM,33.8,30.2,87,29.77,4.0,WNW,6.9,-,0.00,,Overcast,300,2013-02-09 01:30:00
8:51 PM,33.8,30.2,87,29.78,5.0,WNW,6.9,-,0.00,Snow,Light Snow,290,2013-02-09 01:51:00
8:53 PM,33.1,30.9,92,29.79,4.0,West,6.9,-,0.00,Snow,Light Snow,280,2013-02-09 01:53:00
9:37 PM,33.8,28.4,81,29.79,2.5,WNW,19.6,25.3,0.00,Snow,Light Snow,300,2013-02-09 02:37:00
9:53 PM,34.0,28.0,79,29.80,3.0,WNW,18.4,25.3,0.00,Snow,Light Snow,300,2013-02-09 02:53:00
10:53 PM,33.1,25.0,72,29.82,10.0,WNW,24.2,29.9,0.00,,Overcast,300,2013-02-09 03:53:00
11:14 PM,32.0,23.0,69,29.82,10.0,WNW,24.2,31.1,0.00,,Overcast,300,2013-02-09 04:14:00
11:53 PM,30.0,21.0,69,29.85,10.0,NW,24.2,-,0.00,,Overcast,310,2013-02-09 04:53:00